This demonstration page uses our WeatherBlox Daily Observations layout. Learn more.

Hourly Observations for January 24, 2018

Temp ( °F °C ) Dew Point ( °F °C ) Humidity (%) Winds ( mph kmh ) Pressure ( in mb ) Visibility ( mi km ) Precip ( " mm )
12:15 am 00:15 Clear 28 -2.5 23 -5.1 83 83 WNW 8 13 30.39 1029 10 16.0934 0 0
12:35 am 00:35 Clear 28 -2.5 22 -5.3 81 81 WNW 7 11 30.39 1029 10 16.0934 0 0
12:55 am 00:55 Clear 28 -2.3 22 -5.6 78 78 WNW 7 11 30.39 1029 10 16.0934 0 0
1:15 am 01:15 Clear 28 -2.5 22 -5.7 79 79 WNW 10 17 30.39 1029 10 16.0934 0 0
1:35 am 01:35 Clear 27 -2.9 21 -6.1 79 79 W 7 11 30.39 1029 10 16.0934 0 0
1:55 am 01:55 Clear 25 -3.8 20 -6.4 82 82 W 8 13 30.39 1029 10 16.0934 0 0
2:15 am 02:15 Clear 25 -4 20 -6.6 82 82 W 9 15 30.39 1029 10 16.0934 0 0
2:35 am 02:35 Clear 25 -4.1 20 -6.9 81 81 W 12 19 30.39 1029 10 16.0934 0 0
2:55 am 02:55 Clear 23 -5.1 19 -7.5 83 83 W 9 15 30.42 1030 10 16.0934 0 0
3:15 am 03:15 Clear 22 -5.3 18 -7.6 84 84 W 8 13 30.42 1030 10 16.0934 0 0
3:35 am 03:35 Clear 22 -5.6 18 -7.8 85 85 W 9 15 30.42 1030 10 16.0934 0 0
3:55 am 03:55 Clear 22 -5.6 18 -8 83 83 W 9 15 30.42 1030 10 16.0934 0 0
4:15 am 04:15 Clear 22 -5.6 17 -8.1 83 83 W 8 13 30.42 1030 10 16.0934 0 0
4:35 am 04:35 Clear 21 -6 17 -8.3 84 84 W 5 7 30.42 1030 10 16.0934 0 0
4:55 am 04:55 Clear 21 -6.1 17 -8.4 84 84 WSW 5 7 30.42 1030 10 16.0934 0 0
5:15 am 05:15 Clear 20 -6.8 16 -8.9 85 85 W 6 9 30.42 1030 10 16.0934 0 0
5:35 am 05:35 Clear 20 -6.7 16 -8.9 85 85 W 6 9 30.42 1030 10 16.0934 0 0
5:55 am 05:55 Clear 21 -6.1 17 -8.6 83 83 W 6 9 30.42 1030 10 16.0934 0 0
6:15 am 06:15 Clear 21 -6 16 -9 80 80 W 7 11 30.42 1030 10 16.0934 0 0
6:35 am 06:35 Clear 21 -6.1 15 -9.2 79 79 W 6 9 30.42 1030 10 16.0934 0 0
6:55 am 06:55 Clear 20 -6.6 15 -9.5 80 80 W 5 7 30.42 1030 10 16.0934 0 0
7:15 am 07:15 Clear 20 -6.5 15 -9.4 80 80 W 5 7 30.42 1030 10 16.0934 0 0
7:35 am 07:35 Clear 20 -6.6 15 -9.2 82 82 Calm 30.42 1030 10 16.0934 0 0
7:55 am 07:55 Sunny 20 -6.7 15 -9.3 82 82 Calm 30.42 1030 10 16.0934 0 0
8:15 am 08:15 Sunny 20 -6.5 15 -9.4 80 80 Calm 30.42 1030 10 16.0934 0 0
8:35 am 08:35 Sunny 21 -6 16 -8.8 81 81 Calm 30.42 1030 10 16.0934 0 0
8:55 am 08:55 Sunny 23 -4.9 18 -8 79 79 Calm 30.42 1030 10 16.0934 0 0
9:15 am 09:15 Sunny 25 -3.9 19 -7.4 77 77 Calm 30.39 1029 10 16.0934 0 0
9:35 am 09:35 Sunny 26 -3.2 19 -7.1 75 75 SW 5 7 30.39 1029 10 16.0934 0 0
9:55 am 09:55 Sunny 27 -2.6 21 -6.3 76 76 Calm 30.39 1029 10 16.0934 0 0
10:15 am 10:15 Sunny 29 -1.4 21 -6 71 71 Calm 30.39 1029 10 16.0934 0 0
10:35 am 10:35 Sunny 29 -1.5 23 -5.1 77 77 SW 7 11 30.39 1029 10 16.0934 0 0
10:55 am 10:55 Sunny 29 -1.7 22 -5.8 74 74 SW 10 17 30.36 1028 10 16.0934 0 0
11:15 am 11:15 Sunny 30 -1.3 23 -5.2 75 75 SW 10 17 30.33 1027 10 16.0934 0 0
11:35 am 11:35 Sunny 31 -0.5 24 -4.6 74 74 WSW 12 19 30.33 1027 10 16.0934 0 0
11:55 am 11:55 Sunny 33 0.4 25 -3.7 74 74 SW 9 15 30.3 1026 10 16.0934 0 0
12:15 pm 12:15 Sunny 33 0.8 26 -3.6 73 73 SW 15 24 30.3 1026 10 16.0934 0 0
12:35 pm 12:35 Sunny 34 1.1 26 -3.1 74 74 SW 14 22 30.24 1024 10 16.0934 0 0
12:55 pm 12:55 Sunny 35 1.8 27 -2.6 73 73 SW 14 22 30.24 1024 10 16.0934 0 0
1:15 pm 13:15 Sunny 37 2.5 28 -2.4 70 70 SW 16 26 30.24 1024 10 16.0934 0 0
1:35 pm 13:35 Sunny 37 3 28 -2.3 68 68 SW 12 19 30.21 1023 10 16.0934 0 0
1:55 pm 13:55 Sunny 38 3.4 29 -1.7 70 70 SW 16 26 30.21 1023 10 16.0934 0 0
2:15 pm 14:15 Sunny 39 4 30 -1.2 69 69 SW 15 24 30.18 1022 10 16.0934 0 0
2:35 pm 14:35 Sunny 40 4.5 30 -0.9 68 68 SW 12 19 30.18 1022 10 16.0934 0 0
2:55 pm 14:55 Sunny 41 5 32 -0.2 69 69 SW 12 19 30.18 1022 10 16.0934 0 0
3:15 pm 15:15 Sunny 42 5.5 32 0 68 68 SW 13 20 30.18 1022 10 16.0934 0 0
3:35 pm 15:35 Sunny 42 5.6 32 0 68 68 SW 10 17 30.18 1022 10 16.0934 0 0
3:55 pm 15:55 Sunny 42 5.8 32 -0.1 66 66 SW 10 17 30.18 1022 10 16.0934 0 0
4:15 pm 16:15 Sunny 42 5.7 31 -0.4 65 65 SW 10 17 30.18 1022 10 16.0934 0 0
4:35 pm 16:35 Sunny 42 5.5 32 -0.1 68 68 SW 10 17 30.18 1022 10 16.0934 0 0
4:55 pm 16:55 Sunny 41 5.1 32 -0.1 69 69 SW 8 13 30.18 1022 10 16.0934 0 0
5:15 pm 17:15 Sunny 40 4.4 31 -0.5 71 71 SW 9 15 30.15 1021 10 16.0934 0 0
5:35 pm 17:35 Sunny 38 3.3 31 -0.6 76 76 SW 6 9 30.21 1023 10 16.0934 0 0
5:55 pm 17:55 Clear 37 2.9 30 -0.9 76 76 SW 7 11 30.21 1023 10 16.0934 0 0
6:15 pm 18:15 Clear 36 2.2 30 -1.2 78 78 SW 7 11 30.18 1022 10 16.0934 0 0
6:35 pm 18:35 Clear 36 2 30 -1.3 79 79 WSW 6 9 30.21 1023 10 16.0934 0 0
6:55 pm 18:55 Clear 35 1.5 29 -1.5 81 81 SW 7 11 30.21 1023 10 16.0934 0 0
7:15 pm 19:15 Clear 34 0.9 29 -1.9 82 82 WSW 6 9 30.21 1023 10 16.0934 0 0
7:35 pm 19:35 Clear 34 1.2 29 -1.8 81 81 WSW 3 6 30.21 1023 10 16.0934 0 0
7:55 pm 19:55 Clear 34 1.1 28 -2 80 80 SW 5 7 30.21 1023 10 16.0934 0 0
8:15 pm 20:15 Clear 35 1.4 29 -1.9 79 79 WSW 3 6 30.21 1023 10 16.0934 0 0
8:35 pm 20:35 Clear 34 1.1 28 -2 80 80 Calm 30.18 1022 10 16.0934 0 0
8:55 pm 20:55 Clear 34 0.9 28 -2.1 81 81 SW 3 6 30.18 1022 10 16.0934 0 0
9:15 pm 21:15 Clear 33 0.8 28 -2.1 81 81 SW 3 6 30.18 1022 10 16.0934 0 0
9:35 pm 21:35 Clear 33 0.8 28 -2 82 82 Calm 30.18 1022 10 16.0934 0 0
9:55 pm 21:55 Clear 33 0.8 28 -2 82 82 Calm 30.18 1022 10 16.0934 0 0
10:15 pm 22:15 Clear 35 1.4 29 -1.7 80 80 WSW 3 6 30.18 1022 10 16.0934 0 0
10:35 pm 22:35 Clear 36 2 29 -1.5 78 78 Calm 30.18 1022 10 16.0934 0 0
10:55 pm 22:55 Clear 32 0 27 -2.6 83 83 WSW 3 6 30.21 1023 10 16.0934 0 0
11:15 pm 23:15 Clear 31 -0.7 27 -2.8 86 86 WSW 5 7 30.21 1023 10 16.0934 0 0
11:35 pm 23:35 Clear 32 -0.2 27 -2.8 83 83 WSW 3 6 30.21 1023 10 16.0934 0 0
11:55 pm 23:55 Clear 31 -0.5 27 -2.6 86 86 WSW 3 6 30.21 1023 10 16.0934 0 0

Powered by AerisWeather